When you browse on this site, cookies collect data to enhance your experience and personalize the content and advertising you see.
Visit our Privacy Policy to learn more. By continuing to use the site, you agree to this use of cookies and data.

Hourly Weather Lincoln

Today, 7 July, Tuesday

Time Temperature Precipitation Wind Pressure Humidity
00:00 +9°C° 0 mm 3 mps 760 mmHg 80%
01:00 +9°C° 0 mm 3 mps 760 mmHg 81%
02:00 +9°C° 0 mm 3 mps 760 mmHg 82%
03:00 +9°C° 0 mm 3 mps 760 mmHg 84%
04:00 +10°C° 0 mm 3 mps 760 mmHg 83%
05:00 +11°C° 0 mm 3 mps 759 mmHg 82%
06:00 +11°C° 0 mm 3 mps 759 mmHg 81%
07:00 +13°C° 0 mm 3 mps 759 mmHg 75%
08:00 +14°C° 0 mm 3 mps 759 mmHg 69%
09:00 +17°C° 0 mm 3 mps 759 mmHg 63%
10:00 +15°C° 0.1 mm 4 mps 759 mmHg 65%
11:00 +15°C° 0.1 mm 4 mps 758 mmHg 67%
12:00 +15°C° 0.1 mm 4 mps 758 mmHg 68%
13:00 +14°C° 0.4 mm 4 mps 758 mmHg 75%
14:00 +13°C° 0.4 mm 3 mps 758 mmHg 82%
15:00 +12°C° 0.4 mm 3 mps 758 mmHg 88%
16:00 +11°C° 1.3 mm 3 mps 757 mmHg 91%
17:00 +12°C° 1.3 mm 2 mps 756 mmHg 93%
18:00 +12°C° 1.3 mm 2 mps 756 mmHg 95%
19:00 +12°C° 1.2 mm 2 mps 756 mmHg 96%
20:00 +11°C° 1.2 mm 3 mps 756 mmHg 96%
21:00 +11°C° 1.2 mm 3 mps 755 mmHg 97%
22:00 +12°C° 0.5 mm 2 mps 755 mmHg 97%
23:00 +12°C° 0.5 mm 2 mps 755 mmHg 98%

Tomorrow, 8 July, Wednesday

Time Temperature Precipitation Wind Pressure Humidity
00:00 +12°C° 0.5 mm 1 mps 754 mmHg 98%
01:00 +12°C° 0.3 mm 2 mps 754 mmHg 98%
02:00 +12°C° 0.3 mm 2 mps 754 mmHg 98%
03:00 +12°C° 0.3 mm 2 mps 754 mmHg 97%
04:00 +11°C° 0.1 mm 3 mps 754 mmHg 97%
05:00 +11°C° 0.1 mm 3 mps 755 mmHg 96%
06:00 +11°C° 0.1 mm 3 mps 755 mmHg 95%
07:00 +12°C° 0 mm 3 mps 755 mmHg 93%
08:00 +12°C° 0 mm 3 mps 756 mmHg 91%
09:00 +12°C° 0 mm 3 mps 757 mmHg 89%
10:00 +13°C° 0 mm 3 mps 757 mmHg 85%
11:00 +14°C° 0 mm 3 mps 757 mmHg 81%
12:00 +16°C° 0 mm 3 mps 757 mmHg 77%
13:00 +16°C° 0 mm 3 mps 757 mmHg 76%
14:00 +16°C° 0 mm 3 mps 757 mmHg 75%
15:00 +15°C° 0 mm 4 mps 757 mmHg 75%
16:00 +15°C° 0 mm 4 mps 757 mmHg 76%
17:00 +15°C° 0 mm 4 mps 757 mmHg 76%
18:00 +15°C° 0 mm 4 mps 757 mmHg 77%
19:00 +14°C° 0 mm 4 mps 757 mmHg 79%
20:00 +13°C° 0 mm 4 mps 757 mmHg 82%
21:00 +13°C° 0 mm 4 mps 757 mmHg 84%
22:00 +12°C° 0.3 mm 4 mps 757 mmHg 87%
23:00 +12°C° 0.3 mm 5 mps 756 mmHg 91%

Day after tomorrow, 9 July, Thursday

Time Temperature Precipitation Wind Pressure Humidity
00:00 +11°C° 0.3 mm 6 mps 756 mmHg 95%
01:00 +13°C° 0.2 mm 5 mps 755 mmHg 95%
02:00 +14°C° 0.2 mm 5 mps 754 mmHg 96%
03:00 +14°C° 0.2 mm 5 mps 754 mmHg 96%
04:00 +14°C° 0.1 mm 5 mps 753 mmHg 95%
05:00 +15°C° 0.1 mm 6 mps 752 mmHg 94%
06:00 +15°C° 0.1 mm 6 mps 752 mmHg 93%
07:00 +16°C° 0 mm 7 mps 751 mmHg 92%
08:00 +16°C° 0 mm 7 mps 751 mmHg 90%
09:00 +17°C° 0 mm 8 mps 750 mmHg 88%
10:00 +17°C° 0.1 mm 7 mps 750 mmHg 87%
11:00 +17°C° 0.1 mm 7 mps 750 mmHg 86%
12:00 +17°C° 0.1 mm 7 mps 749 mmHg 85%
13:00 +18°C° 0.2 mm 7 mps 749 mmHg 85%
14:00 +18°C° 0.2 mm 7 mps 749 mmHg 84%
15:00 +18°C° 0.2 mm 7 mps 749 mmHg 83%
16:00 +17°C° 0.3 mm 7 mps 749 mmHg 82%
17:00 +16°C° 0.3 mm 7 mps 748 mmHg 81%
18:00 +16°C° 0.3 mm 8 mps 748 mmHg 79%
19:00 +15°C° 0 mm 7 mps 749 mmHg 80%
20:00 +12°C° 0 mm 7 mps 750 mmHg 80%
21:00 +11°C° 0 mm 7 mps 750 mmHg 80%
22:00 +11°C° 0.1 mm 6 mps 751 mmHg 81%
23:00 +10°C° 0.1 mm 6 mps 752 mmHg 82%

10 July, Friday

Time Temperature Precipitation Wind Pressure Humidity
00:00 +9°C° 0.1 mm 6 mps 752 mmHg 83%
01:00 +9°C° 0 mm 5 mps 753 mmHg 84%
02:00 +8°C° 0 mm 4 mps 753 mmHg 86%
03:00 +8°C° 0 mm 3 mps 754 mmHg 88%
04:00 +8°C° 0 mm 4 mps 754 mmHg 85%
05:00 +10°C° 0 mm 4 mps 755 mmHg 83%
06:00 +11°C° 0 mm 4 mps 755 mmHg 81%
07:00 +12°C° 0 mm 5 mps 756 mmHg 76%
08:00 +14°C° 0 mm 5 mps 756 mmHg 71%
09:00 +15°C° 0 mm 5 mps 757 mmHg 66%
10:00 +15°C° 0.3 mm 5 mps 757 mmHg 67%
11:00 +15°C° 0.3 mm 4 mps 757 mmHg 67%
12:00 +17°C° 0.3 mm 4 mps 758 mmHg 68%
13:00 +17°C° 0.6 mm 4 mps 758 mmHg 68%
14:00 +17°C° 0.6 mm 4 mps 758 mmHg 68%
15:00 +17°C° 0.6 mm 4 mps 759 mmHg 68%
16:00 +17°C° 0.4 mm 4 mps 759 mmHg 70%
17:00 +16°C° 0.4 mm 3 mps 759 mmHg 72%
18:00 +16°C° 0.4 mm 3 mps 759 mmHg 74%
19:00 +14°C° 0 mm 3 mps 760 mmHg 76%
20:00 +12°C° 0 mm 3 mps 760 mmHg 78%
21:00 +10°C° 0 mm 4 mps 761 mmHg 80%
22:00 +10°C° 0 mm 4 mps 761 mmHg 82%
23:00 +10°C° 0 mm 4 mps 761 mmHg 83%

11 July, Saturday

Time Temperature Precipitation Wind Pressure Humidity
00:00 +8°C° 0 mm 4 mps 761 mmHg 84%
01:00 +8°C° 0 mm 4 mps 761 mmHg 85%
02:00 +8°C° 0 mm 4 mps 761 mmHg 86%
03:00 +8°C° 0 mm 4 mps 761 mmHg 87%
04:00 +8°C° 0 mm 4 mps 761 mmHg 86%
05:00 +10°C° 0 mm 4 mps 762 mmHg 84%
06:00 +11°C° 0 mm 4 mps 762 mmHg 83%
07:00 +12°C° 0 mm 4 mps 762 mmHg 76%
08:00 +13°C° 0 mm 4 mps 762 mmHg 68%
09:00 +15°C° 0 mm 4 mps 763 mmHg 61%
10:00 +15°C° 0 mm 4 mps 763 mmHg 59%
11:00 +17°C° 0 mm 4 mps 763 mmHg 56%
12:00 +18°C° 0 mm 3 mps 763 mmHg 54%
13:00 +18°C° 0 mm 3 mps 763 mmHg 55%
14:00 +18°C° 0 mm 4 mps 763 mmHg 56%
15:00 +18°C° 0 mm 4 mps 763 mmHg 57%
16:00 +18°C° 0 mm 4 mps 763 mmHg 59%
17:00 +18°C° 0 mm 3 mps 763 mmHg 62%
18:00 +17°C° 0 mm 3 mps 763 mmHg 64%
19:00 +16°C° 0 mm 3 mps 764 mmHg 69%
20:00 +13°C° 0 mm 3 mps 764 mmHg 73%
21:00 +12°C° 0 mm 2 mps 764 mmHg 78%
22:00 +10°C° 0 mm 2 mps 764 mmHg 79%
23:00 +10°C° 0 mm 2 mps 765 mmHg 81%

12 July, Sunday

Time Temperature Precipitation Wind Pressure Humidity
00:00 +9°C° 0 mm 2 mps 765 mmHg 83%
01:00 +9°C° 0 mm 2 mps 765 mmHg 85%
02:00 +8°C° 0 mm 2 mps 765 mmHg 87%
03:00 +8°C° 0 mm 2 mps 765 mmHg 88%
04:00 +9°C° 0 mm 2 mps 765 mmHg 86%
05:00 +10°C° 0 mm 2 mps 765 mmHg 84%
06:00 +12°C° 0 mm 2 mps 765 mmHg 81%
07:00 +13°C° 0 mm 2 mps 765 mmHg 75%
08:00 +15°C° 0 mm 2 mps 765 mmHg 70%
09:00 +17°C° 0 mm 2 mps 765 mmHg 64%
10:00 +18°C° 0 mm 2 mps 765 mmHg 61%
11:00 +19°C° 0 mm 3 mps 765 mmHg 58%
12:00 +20°C° 0 mm 3 mps 765 mmHg 56%
13:00 +20°C° 0 mm 3 mps 765 mmHg 55%
14:00 +21°C° 0 mm 2 mps 765 mmHg 54%
15:00 +21°C° 0 mm 2 mps 764 mmHg 53%
16:00 +21°C° 0 mm 2 mps 764 mmHg 57%
17:00 +21°C° 0 mm 2 mps 764 mmHg 61%
18:00 +20°C° 0 mm 2 mps 764 mmHg 65%
19:00 +19°C° 0 mm 2 mps 764 mmHg 68%
20:00 +18°C° 0 mm 1 mps 764 mmHg 72%
21:00 +16°C° 0 mm 1 mps 764 mmHg 76%
22:00 +15°C° 0 mm 1 mps 764 mmHg 79%
23:00 +14°C° 0 mm 1 mps 763 mmHg 82%
Show more